Change the Weather History Date:

Sunday, November 24, 2013

  Actual Average Record
Temperature  
Mean Temperature 33 °F -  
Max Temperature 45 °F 42 °F 60 °F (1960)
Min Temperature 21 °F 21 °F -5 °F (2010)
Degree Days  
Heating Degree Days 32    
Moisture  
Dew Point 18 °F    
Average Humidity 61    
Maximum Humidity 85    
Minimum Humidity 31    
Precipitation  
Precipitation 0.00 in - - ()
Sea Level Pressure  
Sea Level Pressure 30.23 in    
Wind  
Wind Speed 1 mph (ENE)    
Max Wind Speed 9 mph    
Max Gust Speed -    
Visibility 10 miles    
Events      
Averages and records for this station are not official NWS values.
T = Trace of Precipitation, MM = Missing Value Source: NWS Daily Summary

Daily Weather History Graph

Daily Weather History Graph

Search for Another Location

Airport or City:

Trip Planner

Search our weather history database for the weather conditions in past years. The results will help you decide how hot, cold, wet, or windy it might be!

Date:

Astronomy

Nov. 24, 2013 Rise Set
Actual Time 7:27 AM MST 5:00 PM MST
Civil Twilight 6:57 AM MST 5:30 PM MST
Nautical Twilight 6:23 AM MST 6:05 PM MST
Astronomical Twilight 5:49 AM MST 6:38 PM MST
Moon 11:32 PM MST (11/24) 12:14 PM MST (11/24)
Length of Visible Light 10h 33m
Length of Day
9h 32m
Waning Gibbous, 60% of the Moon is Illuminated
Nov 24
Waning Gibbous
Nov 25
Last Quarter
Dec 2
New
Dec 9
First Quarter
Dec 17
Full

Hourly Weather History & Observations

Time (MST) Temp. Windchill Dew Point Humidity Pressure Visibility Wind Dir Wind Speed Gust Speed Precip Events Conditions
12:51 AM 34.0 °F - 16.0 °F 48% 30.18 in 10.0 mi Calm Calm - N/A   Overcast
1:51 AM 33.1 °F - 17.1 °F 52% 30.17 in 10.0 mi Calm Calm - N/A   Overcast
2:51 AM 28.0 °F - 21.0 °F 75% 30.19 in 10.0 mi Calm Calm - N/A   Overcast
3:51 AM 26.1 °F 16.8 °F 18.0 °F 71% 30.19 in 10.0 mi NNW 9.2 mph - N/A   Clear
4:51 AM 25.0 °F - 18.0 °F 75% 30.19 in 10.0 mi Calm Calm - N/A   Clear
5:51 AM 23.0 °F 18.4 °F 18.0 °F 81% 30.20 in 10.0 mi SW 3.5 mph - N/A   Clear
6:51 AM 23.0 °F - 16.0 °F 74% 30.25 in 10.0 mi Calm Calm - N/A   Clear
7:51 AM 21.0 °F 16.2 °F 17.1 °F 85% 30.26 in 10.0 mi East 3.5 mph - N/A   Clear
8:51 AM 27.0 °F - 19.0 °F 72% 30.25 in 10.0 mi Calm Calm - N/A   Clear
9:51 AM 30.9 °F - 19.9 °F 64% 30.24 in 10.0 mi Calm Calm - N/A   Clear
10:51 AM 35.1 °F 32.2 °F 19.9 °F 54% 30.23 in 10.0 mi Variable 3.5 mph - N/A   Clear
11:51 AM 39.0 °F 34.8 °F 19.0 °F 45% 30.21 in 10.0 mi North 5.8 mph - N/A   Clear
12:51 PM 42.1 °F - 17.1 °F 37% 30.18 in 10.0 mi Calm Calm - N/A   Clear
1:51 PM 44.1 °F 42.5 °F 16.0 °F 32% 30.16 in 10.0 mi Variable 3.5 mph - N/A   Clear
2:51 PM 45.0 °F - 16.0 °F 31% 30.17 in 10.0 mi Calm Calm - N/A   Clear
3:51 PM 45.0 °F - 16.0 °F 31% 30.18 in 10.0 mi Calm Calm - N/A   Clear
4:51 PM 42.1 °F - 17.1 °F 37% 30.19 in 10.0 mi Calm Calm - N/A   Clear
5:51 PM 37.0 °F - 18.0 °F 46% 30.24 in 10.0 mi Calm Calm - N/A   Clear
6:51 PM 28.0 °F 24.2 °F 21.0 °F 75% 30.28 in 10.0 mi SE 3.5 mph - N/A   Clear
7:51 PM 30.0 °F - 19.9 °F 66% 30.29 in 10.0 mi Calm Calm - N/A   Clear
8:51 PM 27.0 °F - 21.0 °F 78% 30.30 in 10.0 mi Calm Calm - N/A   Clear
9:51 PM 25.0 °F 20.7 °F 19.9 °F 81% 30.31 in 10.0 mi ENE 3.5 mph - N/A   Clear
10:51 PM 24.1 °F - 19.0 °F 81% 30.31 in 10.0 mi Calm Calm - N/A   Clear
11:51 PM 27.0 °F 20.5 °F 19.9 °F 75% 30.30 in 10.0 mi SSW 5.8 mph - N/A   Clear